Regional Weather Roundup
Issued by NWS Spokane, WA

Home | Current Version | Previous Version | Text Only | Print | Product List | Glossary On
Versions: 1 2 3 4 5 6 7 8 9 10 11 12 13 14 15 16 17 18 19 20 21 22 23 24 25 26 27 28 29 30 31 32 33 34 35 36 37 38 39 40 41 42 43 44 45 46 47 48 49 50
000
NZUS01 KOTX 192005
RWROTX

Eastern Washington/Northern Idaho Roundup
National Weather Service, Spokane WA
100 PM PDT SAT AUG 19 2017

Note: "fair" indicated few or no clouds below 12,000 feet with no
significant weather and/or obstructions to visibility.

...Northeast Washington and Northern Idaho Panhandle...

CITY           SKY/WX    TMP DP  RH WIND       PRES   REMARKS
Spokane Intl   PTSUNNY   75  38  26 W12       30.07S
Spokane Downto MOSUNNY   76  42  29 CALM      30.06F
Coeur d Alene  PTSUNNY   75  45  34 SW10      30.07F
Deer Park      SUNNY     77  32  19 W12G18    30.05F
Sandpoint      PTSUNNY   73  41  31 SW10G18   30.02S
Bonners Ferry  FAIR      77  43  29 S5        30.00F

...Southeast Washington and southern Idaho Panhandle...

CITY           SKY/WX    TMP DP  RH WIND       PRES   REMARKS
Walla Walla    MOSUNNY   76  49  38 W7        30.09F
Pullman/Moscow CLOUDY    70  44  39 W10       30.13R
Lewiston       MOSUNNY   81  43  26 N12       30.06F
Lowell           N/A     84  47  27 VRB5      30.02F
Grangeville    FAIR      73  45  35 NW7       30.11S

...Columbia Basin...

CITY           SKY/WX    TMP DP  RH WIND       PRES   REMARKS
Ephrata        SUNNY     80  34  19 VRB3      30.05F
Moses Lake     SUNNY     80  38  22 CALM      30.07F
Pasco          PTSUNNY   83  47  28 SW5       30.06F
Richland       MOCLDY    83  45  26 E3        30.06F
Hermiston      MOSUNNY   80  50  34 NW5       30.07F
Pendleton      MOSUNNY   76  47  35 NW12      30.10F

...East Slopes Cascades...

CITY           SKY/WX    TMP DP  RH WIND       PRES   REMARKS
The Dalles     SUNNY     82  51  34 NW12      30.06F
Yakima         SUNNY     82  40  22 NW3       30.08F
Ellensburg     SUNNY     79  41  25 VRB5      30.10F
Stampede Pass  PTSUNNY   61  46  57 SW7       30.23S
Wenatchee      SUNNY     78  36  21 NW10G21   30.07F
Omak           MOSUNNY   81  37  20 NE7       30.07F
Sunnyside        N/A     76  48  37 S3        30.08F

...Southern British Columbia...

CITY           SKY/WX    TMP DP  RH WIND       PRES   REMARKS

...Western Montana...

CITY           SKY/WX    TMP DP  RH WIND       PRES   REMARKS
Kalispell      PTCLDY    78  39  24 SW12G21   29.95S
Libby            N/A     77  37  24 SW8       29.98R
Missoula       SUNNY     79  36  21 W20G25    30.01F

...Neighboring Cities...

CITY           SKY/WX    TMP DP  RH WIND       PRES   REMARKS
Seattle        MOSUNNY   71  51  49 NW9       30.21F
Portland       PTSUNNY   71  53  52 NW12      30.17F
Boise          SUNNY     83  41  22 NW13      30.02F
Great Falls    CLOUDY    72  41  32 N9        29.99F



USA.gov is the U.S. government's official web portal to all federal, state and local government web resources and services.